FLOCK 4V-17 (46529 NORAD) Tracking and Keplerian Element Data

This shows tracking and keplerian element data for the satellite.

Feedback or suggestion? Click here.




ElementValue
Catalog46529
NameFLOCK 4V-17
Epoch Orbit430
Epoch Day304.78303118
Epoch Year2020
RAAN16.8705
Inclination97.4588
Eccentricity0.0004407
Argument of Perigee60.1956
Mean Anonmoly299.9714
Mean Motion15.15925881
Decay Rate8.66E-06
L11 46529U 20061BF 20304.78303118 .00000866 00000-0 48617-4 0 9995
L22 46529 97.4588 16.8705 0004407 60.1956 299.9714 15.15925881 4301

Live tracking and technical data element details for FLOCK 4V-17 (NORAD 46529). FLOCK 4V-17 can be tracked NOW for your location showing map with azimuth and elevation plus other details from your city location.

Track the satellite on the map from your city or location and see movement details for azimuth, elevation, latitude, longitude, range, height, and movement on the map or in text.







IsCatalogInMostPopularTable: catalog: 46529, numindb: 3
Update: records affected: 1



GetName: 46529 FLOCK 4V-17

Hit Count: updated at: Sat, 31 Oct 2020 09:57:16 GMT